Vorticity
nan nan nan nan nan nan nan nan nan nan nan nan nan nan nan nan nan nan nan nan nan nan nan nan nan nan nan nan nan nan nan nan nan nan nan nan nan nan
nan 8 9 9 10 9 9 10 10 11 10 8 9 8 8 11 12 13 14 15 16 12 10 9 8 7 11 11 10 12 13 11 10 14 13 7 7 nan
nan 9 11 11 7 8 10 8 9 9 8 7 9 8 7 9 11 12 12 14 17 16 12 11 11 10 10 12 11 12 12 12 13 16 15 10 9 nan
nan 11 11 8 8 11 8 8 11 11 9 9 8 12 12 11 10 10 12 13 13 15 14 14 13 11 10 11 12 11 11 15 19 18 15 12 10 nan
nan 10 9 9 11 8 8 11 11 8 9 13 11 10 12 12 13 13 11 12 14 17 14 13 14 14 12 10 13 13 16 20 21 17 13 13 12 nan
nan 10 9 7 5 7 11 10 8 9 10 10 11 9 9 11 12 11 11 11 10 16 16 15 18 20 19 12 14 19 19 17 17 13 12 13 9 nan
nan 10 10 4 7 10 9 3 5 11 8 8 10 9 6 8 10 12 10 9 11 13 13 13 15 16 19 20 19 19 22 20 15 11 9 8 10 nan
nan 10 8 10 9 10 7 5 11 8 5 9 8 7 7 9 9 8 9 7 11 13 13 11 14 10 12 21 20 23 25 18 13 12 9 8 10 nan
nan 8 9 8 10 11 6 13 15 10 14 13 9 8 9 8 8 8 9 8 9 7 11 11 14 11 13 17 25 28 18 14 11 11 7 8 8 nan
nan 10 9 7 5 3 12 14 13 14 14 7 8 7 5 5 7 10 10 11 10 11 12 10 12 13 12 21 26 19 14 11 11 9 9 9 7 nan
nan 10 6 4 -2 7 16 12 10 13 11 11 10 8 11 13 9 15 14 11 12 14 16 13 11 12 10 12 27 25 10 9 10 9 8 7 9 nan
nan 7 6 1 4 14 14 17 15 10 9 17 16 17 19 17 20 19 16 14 11 13 13 12 10 9 8 9 18 17 17 17 9 10 10 9 -1 nan
nan 11 6 -1 7 11 19 16 6 6 16 16 13 12 14 17 19 14 15 16 16 14 10 12 8 8 11 11 10 13 15 11 12 18 17 10 3 nan
nan 9 -4 -1 12 18 14 6 10 23 23 11 11 10 12 13 12 14 16 15 16 18 18 13 10 12 9 10 11 8 10 11 13 14 20 23 16 nan
nan -0 2 14 19 15 9 15 26 23 11 10 11 11 12 12 15 16 14 12 10 14 19 19 16 11 11 14 12 11 10 9 11 11 11 13 12 nan
nan 9 10 17 17 15 20 20 16 10 11 12 12 11 12 15 15 13 10 9 9 6 9 14 16 14 12 12 15 12 10 11 9 9 9 9 10 nan
nan 18 13 15 14 15 13 11 11 10 11 12 13 12 13 14 13 12 11 11 12 10 8 7 7 10 13 14 14 11 9 11 11 10 9 11 11 nan
nan 11 10 10 10 10 10 12 9 11 12 12 13 12 13 15 14 11 12 13 11 11 9 9 9 9 7 9 12 11 9 12 12 10 10 11 11 nan
nan 10 10 10 10 11 11 10 10 12 12 14 13 12 14 15 14 13 12 12 10 9 9 10 12 12 12 8 7 10 10 11 11 10 10 11 11 nan
nan 9 11 10 10 11 11 11 11 11 13 13 13 14 15 15 14 12 12 13 11 10 10 10 11 15 14 11 10 8 10 10 10 11 10 10 11 nan
nan 11 11 11 10 11 11 11 11 10 12 16 14 15 15 14 13 14 13 10 8 10 11 10 12 13 9 10 9 11 16 13 7 6 8 11 13 nan
nan 11 11 11 11 11 11 12 11 12 14 15 14 15 14 14 12 12 11 9 10 13 11 9 9 9 12 14 12 9 9 13 18 18 8 1 7 nan
nan nan nan nan nan nan nan nan nan nan nan nan nan nan nan nan nan nan nan nan nan nan nan nan nan nan nan nan nan nan nan nan nan nan nan nan nan nan
CAPE
0 0 0 0 0 7 22 43 51 5 0 4 13 32 76 64 1 0 0 0 0 0 0 6 11 31 51 77 222 332 380 384 370 471 566 142 40 23
0 0 0 0 0 0 8 16 24 44 33 6 11 14 15 59 56 0 0 0 0 8 0 0 0 0 0 8 34 137 237 304 360 571 597 133 30 14
0 0 0 2 5 0 0 0 2 25 50 5 10 9 7 12 8 48 1 0 0 0 7 17 1 0 0 0 1 33 141 243 272 409 499 131 34 20
0 0 10 1 0 0 0 0 5 1 14 5 2 1 1 5 14 18 31 56 10 0 12 2 0 0 0 0 2 5 7 60 124 161 126 78 22 17
6 5 0 0 0 0 0 0 7 20 0 1 12 12 13 37 41 38 43 44 62 32 5 10 2 0 11 1 21 6 7 13 9 0 3 16 22 15
0 0 0 0 0 0 0 10 0 0 0 18 6 2 1 1 15 21 34 16 14 2 0 0 0 0 1 8 13 7 0 0 0 3 6 9 9 8
0 0 0 0 0 0 0 10 0 0 1 7 5 10 11 16 5 10 19 17 13 8 0 0 0 0 0 3 6 1 0 0 0 13 16 13 10 5
0 0 0 0 0 7 26 27 24 10 8 9 6 4 2 2 14 21 34 12 17 10 7 0 0 0 0 0 1 7 0 2 10 18 19 14 13 13
0 0 0 0 0 8 6 15 18 29 21 10 10 13 7 3 13 11 9 5 0 17 0 0 0 0 0 0 0 0 2 10 17 20 19 14 14 12
0 0 0 0 8 5 3 5 3 0 1 4 5 10 14 15 11 14 6 1 2 3 0 0 0 0 0 0 4 8 11 14 21 20 21 19 20 24
0 0 4 5 22 38 14 13 14 4 7 30 58 64 62 61 68 49 12 1 0 1 0 0 0 0 0 0 0 12 13 23 22 22 27 28 26 28
7 4 13 14 28 49 26 17 10 24 27 33 11 4 17 3 21 15 12 3 1 3 0 0 0 0 0 0 0 9 6 25 23 22 27 37 35 1
21 0 0 32 37 46 31 14 28 34 30 5 7 7 0 1 12 11 1 0 0 0 0 0 0 0 0 0 0 0 0 4 4 15 42 41 24 0
9 6 9 35 34 28 20 25 24 37 6 6 7 8 6 8 6 2 0 0 0 0 0 0 0 0 0 0 0 0 0 0 0 0 0 14 31 19
5 59 31 20 20 4 10 24 18 8 5 8 9 9 8 3 0 0 0 0 0 0 0 0 0 0 0 0 0 0 0 0 0 0 0 0 0 0
75 0 0 3 12 9 10 9 7 6 3 7 12 7 6 1 0 0 0 0 0 0 0 0 0 0 0 0 0 0 0 0 0 0 0 0 0 0
17 0 0 3 4 5 8 2 3 3 5 5 3 0 1 0 0 0 0 0 0 0 0 0 0 0 0 0 0 0 0 0 0 0 0 0 0 0
3 0 3 7 9 12 7 3 2 5 2 5 0 0 0 0 0 0 0 0 0 0 0 0 0 0 0 0 0 0 0 0 0 0 0 0 0 0
8 3 5 13 13 6 5 4 1 0 0 5 0 0 0 0 0 0 0 0 0 0 0 0 0 0 0 0 0 0 0 0 0 0 0 0 0 0
14 8 12 11 5 4 5 0 0 0 0 2 0 0 0 0 0 0 0 0 0 0 0 0 0 0 0 0 0 0 0 0 0 0 0 0 0 0
3 9 11 10 2 4 2 0 0 0 2 2 0 0 0 0 0 0 0 0 0 0 0 0 0 1 0 0 0 0 0 0 0 0 0 0 0 0
2 10 7 4 2 3 0 0 0 0 0 0 0 0 0 0 0 0 0 0 0 0 0 0 0 0 0 0 0 0 0 0 0 1 0 0 0 0
8 7 3 2 2 1 0 0 0 0 0 0 0 0 0 0 0 0 0 0 0 0 0 0 0 0 0 0 0 0 0 0 0 0 0 3 2 0